Location: Guferjoch
(46.7462°N, 8.4506°E)
Time: 23:32:37
(UTC+00:00)

Cosmos 1570 Rocket - Pass Details

Date: 14 July 2020
Orbit: 763 x 788 km, 74.1° (Epoch: 14 August)

Event Time Altitude Azimuth Distance (km) Brightness Sun altitude
Rises 02:35:44 0° 339° (NNW) 3,247 7.6 -10.1°
Reaches altitude 10° 02:38:08 10° 342° (NNW) 2,319 6.9 -9.8°
Maximum altitude 02:43:23 68° 66° (ENE) 830 4.4 -9.2°
Drops below altitude 10° 02:48:38 10° 150° (SSE) 2,319 6.4 -8.5°
Sets 02:51:01 0° 153° (SSE) 3,246 7.1 -8.3°
